Theta_e
353 353 352 352 351 352 352 352 352 352 351 352 353 354 352 349 349 351 352 353 354 354 354 351 348 349 352 353 353 353 355 355 354 355 354 354 353 350 349 349 348 348
352 352 352 352 352 352 352 352 352 351 351 352 353 353 352 350 350 352 353 354 354 355 355 352 349 349 351 352 352 352 354 355 355 355 354 354 353 351 349 348 348 348
351 351 351 351 351 351 352 353 353 353 352 352 353 353 353 352 352 353 353 354 354 354 355 353 351 351 353 354 353 353 353 354 354 355 355 354 353 353 351 348 348 347
351 350 350 350 350 351 352 354 354 354 354 353 352 352 352 352 352 353 353 354 355 355 355 354 352 351 355 356 356 355 354 354 354 355 355 354 354 354 352 350 350 349
351 351 350 350 351 353 354 354 354 354 354 353 352 351 352 352 352 353 353 353 354 355 354 354 353 352 354 356 357 356 356 355 355 355 356 355 354 354 354 353 351 351
351 351 350 350 351 353 354 353 352 353 354 353 351 351 351 351 352 353 353 353 354 355 354 354 353 352 353 356 357 357 356 356 356 356 357 356 355 355 355 354 353 352
350 350 351 351 350 351 353 353 352 352 353 353 352 352 352 352 352 354 354 354 354 354 354 354 354 353 353 354 355 356 356 357 357 357 357 357 356 356 355 355 355 352
349 350 350 350 350 350 351 352 352 352 353 354 353 353 353 353 353 354 356 356 355 355 354 354 354 354 353 353 354 355 356 356 357 357 357 356 356 355 354 354 354 352
349 350 350 350 350 350 350 351 352 352 353 354 354 354 354 354 354 354 355 356 356 357 356 355 355 355 354 354 354 354 355 356 356 356 356 356 355 354 353 353 354 353
350 350 350 350 350 349 349 350 351 352 353 354 354 354 354 354 355 355 355 355 356 356 356 356 356 355 355 354 354 354 354 355 356 356 356 356 354 353 353 353 354 354
351 351 351 351 350 350 349 349 350 350 351 352 353 354 354 354 355 355 355 355 355 355 354 355 355 355 355 354 354 354 354 355 355 356 356 356 356 355 354 354 355 356
352 352 352 352 351 351 351 351 351 350 350 351 352 353 354 354 355 355 354 354 354 354 353 352 353 353 354 354 353 354 354 355 355 355 355 355 355 356 356 355 354 355
354 353 354 353 353 353 353 353 353 352 352 351 351 352 353 353 353 353 353 354 354 353 353 352 351 352 352 353 353 354 354 354 354 355 355 354 354 355 355 355 354 353
356 355 355 354 354 354 354 354 354 354 354 353 353 353 353 354 353 353 353 354 353 353 353 353 352 351 352 352 352 353 353 354 353 354 354 353 352 353 353 354 354 354
355 356 356 356 356 356 356 356 355 355 355 355 355 355 354 354 354 353 353 353 352 352 351 352 352 352 351 351 351 351 352 353 353 353 353 353 352 352 353 353 353 353
352 353 354 354 355 355 355 355 355 355 355 355 354 354 353 353 352 352 352 352 351 350 350 350 351 351 351 350 350 351 351 352 353 352 353 353 353 352 352 352 352 352
351 351 351 351 352 352 353 353 354 354 354 354 353 352 351 350 350 350 349 349 350 349 349 349 349 350 350 350 350 350 351 352 353 353 353 352 353 353 352 352 352 351
350 350 350 350 350 351 352 352 352 352 352 351 351 350 349 349 348 348 348 348 348 348 348 348 348 348 348 348 348 349 350 351 352 352 353 353 353 353 353 352 352 351
350 350 350 350 350 350 351 351 350 350 350 350 350 349 349 348 348 348 348 348 348 348 348 347 347 347 348 349 349 349 349 350 351 351 352 352 353 353 353 353 353 352
348 350 350 349 350 350 350 350 349 348 348 349 349 349 349 349 349 349 349 349 349 350 349 349 348 347 348 349 350 350 349 349 349 350 350 351 351 352 352 353 352 352
345 347 348 348 348 347 347 348 347 347 347 347 347 348 348 349 349 349 349 349 350 350 350 351 351 351 350 349 349 350 351 351 351 350 350 350 350 351 351 352 352 352
341 343 343 343 342 342 342 342 341 341 341 342 343 344 344 345 346 347 347 347 347 348 350 350 350 351 352 352 351 351 351 352 352 352 352 351 350 350 350 350 350 351
340 340 341 342 342 342 342 341 340 340 339 340 341 342 342 341 342 343 344 346 346 346 347 347 346 348 350 352 352 352 352 353 353 353 353 352 352 351 350 349 349 349
340 341 341 341 340 340 341 342 343 343 343 342 342 341 340 339 338 339 339 341 342 342 341 340 341 343 346 349 351 352 352 353 354 354 354 354 353 352 351 351 350 349
336 336 337 338 338 339 340 343 344 343 343 343 340 338 336 335 334 334 334 334 335 336 336 336 338 340 342 344 346 349 350 351 352 353 353 353 353 353 353 352 352 352
331 333 335 337 338 338 338 339 339 338 337 336 334 332 330 330 330 330 329 330 331 332 333 335 337 339 337 337 339 343 346 348 350 350 350 350 350 350 351 351 352 352
Wind_Speed
19 19 19 18 17 16 15 15 16 16 16 15 14 13 12 12 13 12 11 10 10 9 8 8 10 11 10 10 9 9 8 7 7 6 7 8 7 6 6 6 6 5
19 18 18 18 17 15 14 14 14 15 15 15 14 13 11 11 12 12 11 10 10 9 8 8 10 11 10 10 10 11 10 9 8 7 7 7 6 6 6 7 7 8
20 18 18 17 16 15 14 14 14 14 14 14 14 13 12 11 11 11 11 10 10 9 9 9 10 11 10 9 10 11 12 12 10 9 8 8 7 7 7 6 7 8
21 19 18 17 15 15 14 14 14 14 14 15 14 13 12 11 11 11 11 11 11 10 9 9 10 11 11 10 10 11 12 12 12 11 10 10 9 8 7 7 7 7
21 19 18 17 15 14 15 15 15 15 14 14 13 12 13 12 12 11 11 11 11 11 10 10 10 11 11 11 11 11 11 12 12 12 12 12 11 10 9 9 9 8
22 20 19 18 17 16 15 15 14 14 14 14 13 12 12 13 12 12 12 12 12 11 11 11 11 12 12 12 12 12 12 12 13 13 13 14 12 12 11 11 11 11
24 22 21 20 19 18 17 15 14 14 14 13 13 13 12 13 13 12 12 13 12 12 12 12 12 11 12 12 13 14 14 14 14 14 15 15 14 14 13 13 13 13
24 23 22 22 21 20 19 17 15 13 13 14 14 14 13 13 13 12 12 13 13 13 12 13 13 12 12 13 14 14 15 15 15 15 16 16 16 16 15 14 14 14
23 23 23 23 22 22 22 21 18 14 13 14 15 14 14 14 13 12 12 12 13 13 13 14 14 14 14 14 15 15 15 15 15 16 16 17 17 17 16 15 15 15
24 23 23 23 22 22 23 23 21 18 15 14 14 15 15 14 14 13 13 13 14 14 15 15 16 16 16 16 16 16 16 16 16 16 17 17 17 17 17 16 16 15
24 23 23 23 22 22 22 22 22 20 18 17 16 15 15 15 15 15 15 15 16 15 16 16 16 16 17 17 17 17 18 18 17 17 18 17 18 18 18 17 17 17
23 23 24 23 22 21 21 21 21 21 20 19 18 17 16 16 17 17 17 17 17 17 17 17 17 17 17 18 18 19 19 19 19 19 19 19 18 18 18 18 18 18
22 23 23 23 22 22 21 21 21 21 20 20 19 19 18 18 18 18 19 19 19 19 19 19 19 19 19 20 20 20 20 21 21 20 20 20 19 19 19 19 19 19
20 21 21 21 22 22 21 21 21 21 20 20 19 20 20 19 18 18 18 18 19 20 20 21 21 21 21 21 21 21 22 22 22 21 21 21 20 20 20 20 20 20
17 18 19 20 21 21 20 20 20 20 20 19 19 19 20 19 18 18 18 18 18 19 20 21 22 22 22 22 22 23 23 23 23 23 22 22 22 22 21 21 21 21
16 16 17 18 19 19 19 18 19 19 19 19 18 17 18 18 17 17 18 19 19 19 20 21 22 23 22 22 23 24 25 25 25 25 25 24 24 24 24 23 23 22
14 15 15 15 16 15 16 16 17 17 17 16 15 15 15 16 15 14 14 16 18 19 19 20 21 23 23 22 22 23 25 26 26 26 26 26 27 27 26 26 25 24
11 12 12 13 13 12 12 13 13 13 12 12 12 13 13 13 13 12 11 11 12 15 16 17 18 19 20 21 21 21 23 24 26 26 27 28 28 29 29 28 28 27
10 10 10 10 10 10 9 9 10 10 10 10 11 11 11 11 11 11 10 8 8 9 11 11 11 12 13 14 16 18 20 21 23 24 26 27 28 29 29 29 29 28
11 11 10 8 7 6 6 6 6 6 5 5 6 6 7 7 8 8 7 6 6 6 6 6 7 8 10 10 10 12 13 16 18 20 23 24 26 27 28 28 28 28
14 13 14 13 10 8 7 7 6 5 5 4 3 3 3 1 1 3 4 3 4 4 4 3 3 6 9 10 11 10 10 11 13 14 17 19 21 24 25 27 27 26
18 16 16 15 14 13 12 11 9 7 7 6 5 6 6 5 4 3 2 2 1 2 3 2 2 3 5 7 10 11 11 10 10 11 12 13 14 16 19 22 24 24
18 17 16 16 15 14 15 15 13 11 10 8 7 7 7 7 8 9 9 8 7 7 5 3 3 4 4 5 6 8 9 9 9 9 9 10 10 10 11 14 16 18
15 13 13 13 13 13 13 14 13 13 13 14 13 14 14 13 13 14 14 13 13 13 12 8 6 6 4 3 4 5 6 7 7 7 7 8 8 8 8 9 9 11
17 15 13 13 13 13 14 14 14 16 17 18 17 17 17 16 15 15 15 15 15 14 14 12 10 9 8 6 4 3 3 4 6 6 6 7 8 9 9 9 9 9
17 16 16 17 17 17 17 17 17 18 18 17 16 16 17 17 17 17 16 16 16 14 13 12 10 10 11 12 10 8 6 4 4 4 5 6 8 9 10 11 11 11
Wind_Direction
224 226 228 228 227 227 227 226 225 224 223 223 227 232 235 231 220 214 219 225 233 243 246 241 228 219 217 218 223 227 232 240 245 255 272 283 288 280 271 275 282 288
227 230 233 233 232 233 233 230 229 227 225 227 231 236 238 233 222 218 224 230 237 245 249 246 232 221 219 219 222 227 233 242 246 252 264 272 278 280 280 277 275 278
228 232 234 235 235 236 235 233 234 235 235 236 239 240 237 234 228 227 231 236 241 248 253 252 240 229 225 226 229 232 237 243 248 253 259 264 269 275 281 281 273 272
226 232 233 233 235 237 239 240 243 246 246 246 247 244 239 237 237 238 241 244 245 249 253 254 247 237 234 240 245 244 245 248 253 257 260 262 265 268 274 276 271 268
225 229 229 229 231 234 240 247 252 254 253 253 252 248 243 242 245 249 251 250 250 252 254 254 248 242 241 249 256 256 256 258 259 261 263 264 264 265 268 273 271 270
226 228 227 228 230 232 239 249 255 258 258 257 256 253 250 249 252 258 259 257 256 257 257 257 251 245 246 251 259 264 266 268 268 267 268 268 267 266 267 270 273 272
226 227 226 228 231 234 239 245 252 258 259 259 259 258 256 256 260 264 266 265 265 264 263 262 258 253 253 255 259 264 268 272 273 273 272 272 271 270 269 271 274 274
226 227 228 230 234 237 239 242 247 254 259 261 261 260 259 260 264 267 270 272 273 272 270 268 266 262 261 261 262 264 266 269 272 274 274 274 274 273 272 273 275 274
227 229 232 234 236 238 239 239 242 247 254 258 260 262 261 260 263 265 268 271 273 274 273 271 271 269 267 267 266 266 267 267 270 273 275 276 276 276 276 274 274 273
227 230 234 237 238 239 239 238 240 243 248 252 256 260 260 259 262 263 263 264 266 269 272 273 273 272 271 270 268 268 268 267 268 272 276 278 278 278 278 276 273 273
226 229 232 236 239 242 242 240 240 243 246 248 250 254 257 259 262 264 265 263 263 265 269 272 272 271 271 271 271 270 269 269 270 272 276 279 280 281 280 278 275 274
227 229 231 234 238 243 246 246 245 245 247 248 250 252 254 258 262 266 269 269 268 269 269 271 272 270 270 271 272 272 271 271 271 272 275 278 280 282 282 281 279 277
228 230 232 234 236 239 243 246 247 248 249 251 253 254 255 257 260 265 270 274 276 275 274 273 273 271 271 271 271 272 271 271 271 272 274 276 277 279 280 281 280 278
226 228 230 232 234 237 239 242 245 247 251 252 254 255 255 256 257 259 265 274 279 280 278 276 274 272 272 271 272 271 270 270 271 271 273 273 273 275 278 279 280 278
226 225 227 231 234 237 239 242 243 246 249 251 252 253 254 254 255 256 260 267 274 279 280 278 275 273 273 274 274 273 271 270 270 270 271 272 272 273 276 278 279 278
228 225 227 230 233 236 239 241 243 245 247 248 248 249 250 251 252 254 257 262 267 272 275 276 275 275 276 276 276 275 274 272 270 270 271 271 272 273 275 277 278 278
223 224 227 229 228 230 233 235 238 240 240 238 238 239 241 244 246 248 252 258 261 265 270 274 276 276 277 277 277 276 275 272 271 272 271 271 271 272 274 277 278 279
205 210 213 215 215 216 221 225 226 226 225 224 224 228 233 238 242 243 246 254 258 260 264 270 277 281 280 277 275 273 273 272 272 272 272 272 272 272 274 276 277 279
169 177 180 187 196 201 207 211 215 220 222 225 228 232 238 246 252 252 251 258 266 264 260 263 273 283 284 280 277 274 271 271 270 271 272 273 274 274 274 276 277 279
119 125 128 133 148 164 172 176 186 198 205 218 232 241 249 260 269 272 272 273 279 282 272 262 263 269 272 275 278 278 273 268 268 269 270 272 274 275 276 277 278 279
95 99 103 102 103 107 109 113 123 128 125 121 107 94 89 66 285 276 281 285 285 287 285 279 278 274 271 269 270 275 277 273 270 271 271 272 274 275 276 277 278 279
92 92 93 93 92 90 87 84 86 93 96 95 96 100 97 81 70 66 57 44 351 307 297 307 344 323 295 280 273 271 275 279 279 277 276 276 276 275 274 273 273 274
92 89 87 87 86 86 84 82 79 82 87 91 93 100 100 83 71 71 71 70 69 60 49 39 10 347 324 301 286 276 276 284 289 290 290 288 286 283 279 275 273 272
93 89 86 87 88 88 90 89 83 81 85 91 92 91 88 83 79 78 75 72 71 63 55 50 37 18 2 334 306 291 287 291 296 300 302 299 296 293 291 290 287 283
90 87 86 88 90 91 92 92 88 85 88 92 92 90 88 85 85 83 78 74 72 65 55 49 45 37 27 21 21 358 323 310 306 307 311 312 310 306 303 303 305 304
88 89 91 92 92 93 93 92 91 90 92 93 92 91 88 84 81 78 73 68 66 62 57 51 48 45 37 33 36 38 28 3 333 322 323 323 323 320 315 313 313 313